[[{"header":{"parameterUnit":"m.s-1","parameterCategory":1,"la1":30.2991,"la2":30.254,"lo1":-89.0895,"lo2":-89.0444,"dy":0.0017,"dx":0.0017,"nx":28,"ny":28,"refTime":"2025-12-25T03:00:00:Z","depth":0,"parameterNumber":2,"parameterNumberName":"U-component_of_WINDS"},"data":[0,0,0,0,0,0,0,0,0,0,0,0,0,0,0,0,0,0,0,0,0,0,0,0,0,0,0,0,0,0,0,0,0,0,0,0,0,0,0,0,0,0,0,0,0,0,0,0,0,0,0,0,0,0,0,0,0,0,0.5962,0.5963,0,0.6004,0.6005,0.6005,0.5987,0.5986,0.5985,0.5984,0.6031,0.6033,0.6036,0,0,0,0,0,0,0,0,0,0,0,0,0,0.5872,0.5873,0.5962,0.5963,0.5963,0.6004,0.6005,0.6005,0.5987,0.5986,0.5985,0.5983,0.603,0.6033,0.6036,0,0,0,0,0,0,0,0,0,0,0,0,0,0.5912,0.5874,0.5962,0.5959,0.5959,0.6004,0.6005,0.6005,0.5987,0.5986,0.5984,0.5983,0.603,0.6033,0.6036,0.6088,0,0,0.6046,0.6048,0,0,0,0,0,0,0,0,0.591,0.5916,0.5959,0.5959,0.596,0.5989,0.599,0.6033,0.5988,0.5977,0.5984,0.5982,0.6019,0.6023,0.6034,0.609,0.6092,0.6047,0.6049,0.605,0.6051,0,0,0,0,0,0,0,0.5907,0.5914,0.5979,0.596,0.596,0.5957,0.5961,0.5998,0.6006,0.5978,0.5976,0.5981,0.6018,0.6031,0.6035,0.6093,0.6047,0.605,0.6052,0.6053,0.6196,0.6198,0,0,0,0,0,0,0.5904,0.5911,0.5978,0.598,0.593,0.596,0.5965,0.5981,0.6006,0.6008,0.5983,0.598,0.6026,0.6031,0.6037,0.61,0.605,0.6053,0.6055,0.6194,0.6196,0.6198,0,0,0,0,0,0,0.5902,0.591,0.5976,0.5946,0.5954,0.5963,0.5982,0.5983,0.5995,0.6009,0.6011,0.5994,0.6025,0.6032,0.6075,0.6102,0.6055,0.6058,0.6192,0.6195,0.6197,0.6227,0,0,0,0,0,0,0.5899,0.5909,0.5928,0.5946,0.5955,0.6012,0.5983,0.5985,0.6,0.5998,0.602,0.6022,0.6024,0.6071,0.6079,0.6105,0.606,0.619,0.6193,0.6196,0.6224,0.623,0.6236,0,0,0,0,0,0.5896,0.5935,0.5929,0.5937,0.5978,0.6014,0.6019,0.602,0.6002,0.6022,0.6032,0.6022,0.6097,0.6075,0.6084,0.6112,0.6188,0.6192,0.6196,0.6221,0.6229,0.6236,0,0,0,0,0,0,0.592,0.5937,0.593,0.5976,0.5993,0.6011,0.6035,0.6028,0.6052,0.6049,0.6049,0.6055,0.61,0.611,0.6085,0.6165,0.614,0.6146,0.6156,0.6164,0.617,0.6167,0.6063,0,0,0,0,0,0.5931,0.5957,0.5971,0.601,0.6019,0.6026,0.6041,0.604,0.6059,0.6066,0.6079,0.6099,0.6127,0.6146,0.6173,0.6225,0.6231,0.6249,0.6255,0.626,0.6266,0.6296,0.6305,0.6211,0.6211,0.6211,0,0,0.5953,0.5965,0.5982,0.6015,0.6028,0.6057,0.6032,0.6063,0.6085,0.6071,0.6113,0.6123,0.6146,0.6194,0.6216,0.6205,0.6293,0.6265,0.6269,0.6272,0.6301,0.631,0.6318,0.6214,0.6214,0.6213,0,0,0.6008,0.6019,0.6054,0.6068,0.6088,0.6093,0.6101,0.612,0.6126,0.6167,0.6158,0.6185,0.6234,0.6251,0.6266,0.6329,0.6322,0.6338,0.637,0.64,0.6407,0.6414,0.6438,0.6446,0.6343,0.6343,0.6343,0,0.6033,0.6074,0.6073,0.6104,0.612,0.6108,0.6145,0.6159,0.6188,0.62,0.6186,0.6247,0.6262,0.6315,0.633,0.6342,0.6353,0.6336,0.6406,0.6413,0.6419,0.6442,0.6451,0.6345,0.6345,0.6345,0.6345,0,0.6106,0.6134,0.616,0.6187,0.6206,0.6239,0.6245,0.6264,0.6262,0.6268,0.6312,0.6329,0.636,0.6372,0.637,0.6426,0.6418,0.6405,0.6381,0.643,0.6451,0.646,0.6348,0.6347,0.6347,0.6346,0,0,0.6177,0.6203,0.6212,0.6225,0.6247,0.6271,0.6305,0.6334,0.6351,0.6372,0.6402,0.6444,0.6433,0.645,0.645,0.6476,0.6527,0.646,0.6461,0.6473,0.6591,0.6601,0.6611,0.6522,0.6524,0.6525,0.659,0,0.6234,0.6292,0.6292,0.6347,0.6375,0.6365,0.6396,0.6414,0.6421,0.6448,0.6457,0.6487,0.6469,0.6479,0.6504,0.6516,0.6551,0.6511,0.6552,0.6554,0.6547,0.6623,0.6633,0.6693,0.6598,0.66,0.6601,0,0.6309,0.6331,0.6388,0.6408,0.642,0.6447,0.6474,0.6499,0.652,0.6524,0.6544,0.6541,0.6578,0.6552,0.6605,0.6577,0.6595,0.6603,0.6605,0.661,0.658,0.663,0.6712,0.6722,0.6614,0.6613,0.6612,0,0.6356,0.6401,0.6441,0.6452,0.6476,0.6496,0.6507,0.6526,0.6544,0.6569,0.6581,0.661,0.6627,0.665,0.6656,0.6636,0.671,0.6684,0.6715,0.6716,0.6732,0.6731,0.6818,0.6741,0.6741,0.6741,0.6741,0,0.6421,0.6457,0.6463,0.6488,0.6528,0.6529,0.657,0.658,0.6598,0.6626,0.662,0.6647,0.6652,0.6681,0.6686,0.673,0.6737,0.6743,0.6744,0.6744,0.6743,0.6755,0.6752,0.6743,0.6743,0.6742,0.6742,0,0.6481,0.6486,0.653,0.6549,0.6554,0.6584,0.6601,0.6626,0.6633,0.6669,0.6678,0.669,0.6724,0.6731,0.6772,0.6775,0.6828,0.6824,0.682,0.682,0.6852,0.6849,0.6951,0.6966,0.6878,0.6879,0.688,0,0.6522,0.6549,0.6571,0.6589,0.6601,0.6629,0.6648,0.665,0.667,0.6697,0.672,0.6752,0.6779,0.6834,0.6847,0.6879,0.6877,0.691,0.6882,0.6881,0.6879,0.6877,0.6881,0.6916,0.6917,0.6918,0.6918,0,0.6595,0.6597,0.6622,0.6649,0.6671,0.6693,0.6714,0.673,0.6735,0.6758,0.6792,0.6812,0.6854,0.6887,0.6919,0.6933,0.6928,0.6927,0.6937,0.6937,0.6934,0.6938,0.6836,0.6925,0.6925,0.6924,0.6924,0.6923,0.6648,0.6672,0.6691,0.6721,0.6737,0.6757,0.6781,0.6792,0.6819,0.6852,0.6853,0.689,0.6913,0.6955,0.6971,0.7002,0.6992,0.7005,0.7008,0.7012,0.7015,0.6929,0.7007,0.7007,0.7007,0.7007,0.7007,0,0.6721,0.6733,0.676,0.679,0.6813,0.6805,0.6828,0.6849,0.6882,0.6903,0.6929,0.6969,0.7002,0.7018,0.7051,0.7073,0.7072,0.7082,0.7081,0.7084,0.7021,0.7011,0.7082,0.7082,0.7082,0.7082,0.7082,0.7082,0.6762,0.6803,0.6808,0.6858,0.687,0.6905,0.692,0.6939,0.6956,0.7,0.7027,0.7037,0.7057,0.7092,0.7123,0.7127,0.714,0.7152,0.7155,0.7096,0.7088,0.7081,0.7071,0.7154,0.7154,0.7215,0.7216,0.7216]},{"header":{"parameterUnit":"m.s-1","parameterCategory":1,"la1":30.2991,"la2":30.254,"lo1":-89.0895,"lo2":-89.0444,"dy":0.0017,"dx":0.0017,"nx":28,"ny":28,"refTime":"2025-12-25T03:00:00:Z","depth":0,"parameterNumber":3,"parameterNumberName":"V-component_of_WINDS"},"data":[0,0,0,0,0,0,0,0,0,0,0,0,0,0,0,0,0,0,0,0,0,0,0,0,0,0,0,0,0,0,0,0,0,0,0,0,0,0,0,0,0,0,0,0,0,0,0,0,0,0,0,0,0,0,0,0,0,0,-0.2249,-0.225,0,-0.2311,-0.2311,-0.2312,-0.2316,-0.2316,-0.2315,-0.2314,-0.2381,-0.2383,-0.2385,0,0,0,0,0,0,0,0,0,0,0,0,0,-0.214,-0.2142,-0.2249,-0.225,-0.2251,-0.231,-0.2311,-0.2312,-0.2316,-0.2316,-0.2315,-0.2314,-0.238,-0.2383,-0.2386,0,0,0,0,0,0,0,0,0,0,0,0,0,-0.2193,-0.2143,-0.2249,-0.226,-0.2262,-0.231,-0.2311,-0.2312,-0.2317,-0.2316,-0.2315,-0.2314,-0.2379,-0.2382,-0.2386,-0.2429,0,0,-0.2397,-0.2399,0,0,0,0,0,0,0,0,-0.219,-0.2197,-0.2258,-0.2259,-0.2261,-0.2305,-0.2297,-0.2352,-0.2317,-0.2296,-0.2314,-0.2313,-0.2356,-0.2362,-0.2376,-0.2432,-0.2435,-0.2397,-0.24,-0.2401,-0.2402,0,0,0,0,0,0,0,-0.2186,-0.2195,-0.2274,-0.2259,-0.2261,-0.2263,-0.227,-0.2307,-0.2331,-0.2298,-0.2298,-0.2305,-0.2357,-0.2372,-0.2377,-0.2436,-0.2397,-0.24,-0.2403,-0.2404,-0.2532,-0.2533,0,0,0,0,0,0,-0.218,-0.2191,-0.2272,-0.2276,-0.2222,-0.2266,-0.2273,-0.2292,-0.2331,-0.2336,-0.2306,-0.2305,-0.2367,-0.2373,-0.238,-0.2433,-0.2401,-0.2404,-0.2407,-0.253,-0.2532,-0.2533,0,0,0,0,0,0,-0.2178,-0.2187,-0.2269,-0.2234,-0.2244,-0.2269,-0.229,-0.2294,-0.2309,-0.2337,-0.2342,-0.2317,-0.2366,-0.2375,-0.2417,-0.2436,-0.2406,-0.2409,-0.2529,-0.2531,-0.2533,-0.254,0,0,0,0,0,0,-0.2175,-0.2186,-0.2202,-0.2234,-0.2246,-0.2304,-0.2291,-0.2296,-0.2314,-0.2314,-0.2348,-0.2353,-0.2366,-0.2411,-0.242,-0.244,-0.2412,-0.2527,-0.253,-0.2532,-0.2538,-0.2542,-0.2545,0,0,0,0,0,-0.2171,-0.2202,-0.2203,-0.2212,-0.2266,-0.2305,-0.2312,-0.2325,-0.2316,-0.2332,-0.2351,-0.2352,-0.2432,-0.2415,-0.2426,-0.2447,-0.2526,-0.2529,-0.2532,-0.2537,-0.2541,-0.2545,0,0,0,0,0,0,-0.2173,-0.2207,-0.2208,-0.225,-0.2275,-0.2306,-0.2327,-0.2329,-0.2358,-0.2356,-0.2372,-0.238,-0.2422,-0.2439,-0.242,-0.2491,-0.2478,-0.2483,-0.2479,-0.2483,-0.2486,-0.2482,-0.2415,0,0,0,0,0,-0.2179,-0.2206,-0.2235,-0.227,-0.2282,-0.2302,-0.232,-0.2327,-0.2354,-0.2365,-0.2386,-0.2413,-0.2444,-0.2464,-0.2495,-0.2541,-0.2549,-0.256,-0.2564,-0.2566,-0.2571,-0.2597,-0.2603,-0.2542,-0.2542,-0.2542,0,0,-0.2191,-0.2212,-0.2229,-0.2271,-0.2291,-0.232,-0.2311,-0.2343,-0.2365,-0.237,-0.2411,-0.2428,-0.2459,-0.2503,-0.2523,-0.2518,-0.2589,-0.257,-0.2572,-0.2575,-0.26,-0.2606,-0.2611,-0.2544,-0.2544,-0.2544,0,0,-0.2227,-0.2246,-0.2277,-0.2297,-0.2327,-0.234,-0.2348,-0.2379,-0.239,-0.243,-0.2435,-0.2463,-0.2516,-0.2538,-0.2556,-0.2601,-0.2604,-0.261,-0.2629,-0.2654,-0.2659,-0.2663,-0.268,-0.2686,-0.2615,-0.2615,-0.2615,0,-0.2238,-0.2282,-0.2293,-0.2325,-0.2344,-0.2348,-0.2381,-0.24,-0.2439,-0.2452,-0.2445,-0.2512,-0.2533,-0.2583,-0.2594,-0.2608,-0.2618,-0.2607,-0.2657,-0.2662,-0.2666,-0.2682,-0.2688,-0.2615,-0.2615,-0.2615,-0.2615,0,-0.2295,-0.2325,-0.2347,-0.2383,-0.2404,-0.2436,-0.2454,-0.2474,-0.248,-0.2495,-0.2537,-0.2562,-0.2598,-0.261,-0.2617,-0.2662,-0.2657,-0.2653,-0.2641,-0.2672,-0.2688,-0.2694,-0.2616,-0.2616,-0.2616,-0.2616,0,0,-0.2335,-0.2377,-0.2385,-0.2401,-0.2434,-0.2459,-0.2491,-0.2525,-0.2543,-0.2569,-0.2598,-0.2643,-0.2639,-0.266,-0.2669,-0.2691,-0.2727,-0.2685,-0.2686,-0.2693,-0.2779,-0.2782,-0.2789,-0.2728,-0.2729,-0.273,-0.2776,0,-0.2376,-0.2433,-0.2444,-0.2494,-0.2523,-0.2528,-0.2556,-0.258,-0.2595,-0.2623,-0.2639,-0.2671,-0.2664,-0.2676,-0.2698,-0.2718,-0.2744,-0.2714,-0.2757,-0.2758,-0.2749,-0.2797,-0.28,-0.2842,-0.2782,-0.2784,-0.2784,0,-0.2432,-0.2458,-0.2511,-0.254,-0.2553,-0.2578,-0.261,-0.2636,-0.2664,-0.2673,-0.2696,-0.2703,-0.2738,-0.2724,-0.2774,-0.2753,-0.2771,-0.2783,-0.2785,-0.279,-0.2773,-0.2804,-0.2856,-0.2863,-0.2794,-0.2793,-0.2792,0,-0.2457,-0.2506,-0.2544,-0.2558,-0.2593,-0.2611,-0.2627,-0.2653,-0.2673,-0.2701,-0.2715,-0.2747,-0.2766,-0.2791,-0.2807,-0.2795,-0.2857,-0.2843,-0.2866,-0.2866,-0.288,-0.2879,-0.2936,-0.289,-0.289,-0.289,-0.289,0,-0.2502,-0.2534,-0.2556,-0.2579,-0.2615,-0.2629,-0.2665,-0.2681,-0.2705,-0.2732,-0.2738,-0.2765,-0.2783,-0.2813,-0.2825,-0.2865,-0.2874,-0.2883,-0.2886,-0.2883,-0.2882,-0.2896,-0.2893,-0.2891,-0.2891,-0.2891,-0.289,0,-0.2537,-0.2552,-0.2594,-0.2623,-0.2632,-0.2657,-0.2683,-0.2707,-0.2721,-0.2756,-0.2765,-0.2789,-0.2823,-0.2841,-0.2885,-0.2894,-0.2939,-0.294,-0.2929,-0.2931,-0.2953,-0.2951,-0.3022,-0.3032,-0.2978,-0.2979,-0.2979,0,-0.2565,-0.2589,-0.2621,-0.2639,-0.2655,-0.2685,-0.2704,-0.2719,-0.2739,-0.2773,-0.2793,-0.2828,-0.2856,-0.2911,-0.2933,-0.2967,-0.2969,-0.2992,-0.2975,-0.2971,-0.2971,-0.297,-0.2973,-0.2995,-0.2996,-0.2996,-0.2997,0,-0.2613,-0.2619,-0.2647,-0.2678,-0.2701,-0.2726,-0.2751,-0.2766,-0.2784,-0.2807,-0.2842,-0.2864,-0.2908,-0.2943,-0.2978,-0.2996,-0.3,-0.3002,-0.3009,-0.3006,-0.2999,-0.3004,-0.2938,-0.3,-0.3,-0.3,-0.2999,-0.2999,-0.2646,-0.2668,-0.2694,-0.2725,-0.2745,-0.2768,-0.2792,-0.2809,-0.2837,-0.2873,-0.288,-0.2918,-0.2946,-0.2993,-0.3012,-0.3042,-0.3038,-0.3048,-0.3051,-0.3054,-0.3055,-0.2994,-0.3049,-0.3049,-0.3049,-0.3049,-0.3049,0,-0.2696,-0.2712,-0.274,-0.2774,-0.2799,-0.2799,-0.2826,-0.2847,-0.2879,-0.2905,-0.2932,-0.2973,-0.3006,-0.3031,-0.3065,-0.3085,-0.3088,-0.3094,-0.3093,-0.3097,-0.3057,-0.3047,-0.3091,-0.3091,-0.3091,-0.3091,-0.3091,-0.3091,-0.2724,-0.2762,-0.2772,-0.282,-0.2837,-0.2872,-0.2888,-0.291,-0.293,-0.2975,-0.3002,-0.3017,-0.3042,-0.3079,-0.3111,-0.3117,-0.313,-0.3136,-0.3143,-0.3105,-0.31,-0.3096,-0.3087,-0.3139,-0.3139,-0.3181,-0.3182,-0.3182]}]]